Weather History for Fredericksburg, TX

Change the Weather History Date:

Tuesday, April 8, 2014

  Actual Average (KSAT) Record (KSAT)
Temperature  
Mean Temperature 58 °F 68 °F  
Max Temperature 74 °F 79 °F 98 °F (1989)
Min Temperature 42 °F 56 °F 35 °F (2007)
Degree Days  
Heating Degree Days 7 2  
Month to date heating degree days 18  
Since 1 July heating degree days 1473  
Cooling Degree Days 0 4  
Month to date cooling degree days 31  
Year to date cooling degree days 122  
Growing Degree Days 8 (Base 50)    
Moisture  
Dew Point 34 °F    
Average Humidity 48    
Maximum Humidity 90    
Minimum Humidity 17    
Precipitation  
Precipitation 0.00 in 0.05 in 1.53 in (1929)
Month to date precipitation 0.46  
Year to date precipitation 6.32  
Snow  
Snow 0.00 in - - ()
Month to date snowfall  
Since 1 July snowfall  
Snow Depth -    
Sea Level Pressure  
Sea Level Pressure 30.17 in    
Wind  
Wind Speed 8 mph (NW)    
Max Wind Speed 23 mph    
Max Gust Speed 31 mph    
Visibility 10 miles    
Events      
T = Trace of Precipitation, MM = Missing Value Source: NWS Daily Summary

Daily Weather History Graph

Daily Weather History Graph

Search for Another Location

Airport:

Trip Planner

Search our weather history database for the weather conditions in past years. The results will help you decide how hot, cold, wet, or windy it might be!

Date:

Astronomy

Apr. 08, 2014 Rise Set
Actual Time 7:16 AM CDT 7:58 PM CDT
Civil Twilight 6:52 AM CDT 8:23 PM CDT
Nautical Twilight 6:23 AM CDT 8:51 PM CDT
Astronomical Twilight 5:54 AM CDT 9:21 PM CDT
Moon 2:17 PM CDT (4/8) 3:05 AM CDT (4/8)
Length of Visible Light 13h 31m
Length of Day
12h 42m
Waxing Gibbous, 63% of the Moon is Illuminated
Apr 8
Waxing Gibbous
Apr 15
Full
Apr 22
Last Quarter
Apr 29
New
May 6
First Quarter

Hourly Weather History & Observations

Time (CDT) Temp. Windchill Dew Point Humidity Pressure Visibility Wind Dir Wind Speed Gust Speed Precip Events Conditions
12:15 AM 48.7 °F - 43.0 °F 80% 30.10 in 10.0 mi Calm Calm - N/A   Clear
12:35 AM 49.5 °F - 42.6 °F 77% 30.10 in 10.0 mi West 3.5 mph - N/A   Clear
12:55 AM 47.8 °F - 42.3 °F 81% 30.10 in 10.0 mi Calm Calm - N/A   Clear
1:15 AM 46.9 °F - 42.4 °F 84% 30.10 in 10.0 mi West 3.5 mph - N/A   Clear
1:35 AM 45.3 °F 43.0 °F 41.9 °F 88% 30.10 in 10.0 mi WSW 4.6 mph - N/A   Clear
1:55 AM 44.1 °F - 40.3 °F 87% 30.10 in 10.0 mi Calm Calm - N/A   Clear
2:15 AM 46.0 °F 44.8 °F 41.5 °F 84% 30.10 in 10.0 mi West 3.5 mph - N/A   Clear
2:35 AM 45.1 °F 42.8 °F 41.2 °F 86% 30.11 in 10.0 mi WSW 4.6 mph - N/A   Clear
2:55 AM 44.6 °F 41.4 °F 41.2 °F 88% 30.11 in 10.0 mi WSW 5.8 mph - N/A   Clear
3:15 AM 45.0 °F 42.6 °F 41.2 °F 87% 30.10 in 10.0 mi WSW 4.6 mph - N/A   Clear
3:35 AM 44.1 °F 41.5 °F 40.8 °F 88% 30.11 in 10.0 mi SW 4.6 mph - N/A   Clear
3:55 AM 42.8 °F 40.1 °F 40.1 °F 90% 30.11 in 10.0 mi WSW 4.6 mph - N/A   Clear
4:15 AM 43.5 °F 41.9 °F 40.3 °F 88% 30.12 in 10.0 mi WSW 3.5 mph - N/A   Clear
4:35 AM 44.1 °F 42.5 °F 40.3 °F 87% 30.12 in 10.0 mi WSW 3.5 mph - N/A   Clear
4:55 AM 43.2 °F 40.5 °F 39.6 °F 87% 30.13 in 10.0 mi WSW 4.6 mph - N/A   Clear
5:15 AM 43.3 °F 39.2 °F 39.0 °F 85% 30.13 in 10.0 mi NW 6.9 mph - N/A   Clear
5:35 AM 47.3 °F - 39.9 °F 76% 30.14 in 10.0 mi NNW 8.1 mph - N/A   Clear
5:55 AM 47.3 °F - 39.2 °F 73% 30.14 in 10.0 mi NNW 10.4 mph - N/A   Clear
6:15 AM 49.1 °F - 37.6 °F 64% 30.16 in 10.0 mi NNW 11.5 mph 18.4 mph N/A   Clear
6:35 AM 49.1 °F - 37.4 °F 64% 30.16 in 10.0 mi NNW 10.4 mph - N/A   Clear
6:55 AM 48.2 °F - 37.6 °F 67% 30.16 in 10.0 mi North 8.1 mph - N/A   Clear
7:15 AM 47.8 °F - 37.4 °F 67% 30.17 in 10.0 mi NNW 6.9 mph - N/A   Clear
7:35 AM 46.9 °F - 37.4 °F 69% 30.18 in 10.0 mi NW 6.9 mph - N/A   Clear
7:55 AM 47.8 °F - 37.8 °F 68% 30.19 in 10.0 mi West 5.8 mph - N/A   Clear
8:15 AM 49.5 °F - 38.3 °F 65% 30.20 in 10.0 mi NW 6.9 mph - N/A   Clear
8:35 AM 50.9 °F - 38.8 °F 63% 30.20 in 10.0 mi NW 5.8 mph - N/A   Clear
8:55 AM 52.7 °F - 38.7 °F 59% 30.21 in 10.0 mi NW 10.4 mph - N/A   Clear
9:15 AM 55.6 °F - 37.9 °F 52% 30.22 in 10.0 mi NNW 12.7 mph - N/A   Clear
9:35 AM 56.8 °F - 36.5 °F 47% 30.23 in 10.0 mi NNW 13.8 mph - N/A   Clear
9:55 AM 59.0 °F - 35.1 °F 41% 30.23 in 10.0 mi NNW 15.0 mph 21.9 mph N/A   Clear
10:15 AM 60.3 °F - 32.7 °F 35% 30.23 in 10.0 mi NW 15.0 mph 18.4 mph N/A   Clear
10:35 AM 61.7 °F - 30.6 °F 31% 30.24 in 10.0 mi NW 12.7 mph 18.4 mph N/A   Clear
10:55 AM 63.7 °F - 28.6 °F 27% 30.25 in 10.0 mi NNW 19.6 mph 26.5 mph N/A   Clear
11:15 AM 64.9 °F - 28.0 °F 25% 30.25 in 10.0 mi NNW 20.7 mph 25.3 mph N/A   Clear
11:35 AM 65.7 °F - 26.8 °F 23% 30.25 in 10.0 mi North 21.9 mph 27.6 mph N/A   Clear
11:55 AM 66.0 °F - 25.5 °F 22% 30.25 in 10.0 mi NNW 21.9 mph 31.1 mph N/A   Clear
12:15 PM 66.9 °F - 25.9 °F 21% 30.25 in 10.0 mi North 21.9 mph 29.9 mph N/A   Clear
12:35 PM 67.5 °F - 24.8 °F 20% 30.24 in 10.0 mi NNW 19.6 mph 27.6 mph N/A   Clear
12:55 PM 68.5 °F - 25.9 °F 20% 30.25 in 10.0 mi NNW 16.1 mph 26.5 mph N/A   Clear
1:15 PM 69.3 °F - 25.5 °F 19% 30.23 in 10.0 mi North 23.0 mph 28.8 mph N/A   Clear
1:35 PM 69.1 °F - 25.9 °F 20% 30.22 in 10.0 mi North 17.3 mph 27.6 mph N/A   Clear
1:55 PM 70.3 °F - 27.3 °F 20% 30.22 in 10.0 mi North 19.6 mph - N/A   Clear
2:15 PM 70.5 °F - 28.6 °F 21% 30.21 in 10.0 mi North 17.3 mph 24.2 mph N/A   Clear
2:35 PM 71.4 °F - 29.5 °F 21% 30.20 in 10.0 mi NW 16.1 mph 20.7 mph N/A   Clear
2:55 PM 71.8 °F - 28.9 °F 20% 30.19 in 10.0 mi NW 19.6 mph 28.8 mph N/A   Clear
3:15 PM 73.0 °F - 29.1 °F 20% 30.18 in 10.0 mi NW 20.7 mph 27.6 mph N/A   Clear
3:35 PM 72.7 °F - 28.0 °F 19% 30.18 in 10.0 mi NNW 20.7 mph 27.6 mph N/A   Clear
3:55 PM 73.0 °F - 28.6 °F 19% 30.16 in 10.0 mi NNW 20.7 mph 27.6 mph N/A   Clear
4:15 PM 73.6 °F - 27.9 °F 18% 30.16 in 10.0 mi North 21.9 mph 31.1 mph N/A   Clear
4:35 PM 74.1 °F - 28.0 °F 18% 30.16 in 10.0 mi North 15.0 mph 25.3 mph N/A   Clear
4:55 PM 73.9 °F - 28.8 °F 19% 30.16 in 10.0 mi NW 16.1 mph 24.2 mph N/A   Clear
5:15 PM 74.3 °F - 27.1 °F 17% 30.15 in 10.0 mi North 18.4 mph 26.5 mph N/A   Clear
5:35 PM 73.8 °F - 27.9 °F 18% 30.15 in 10.0 mi NNW 17.3 mph 23.0 mph N/A   Clear
5:55 PM 73.8 °F - 27.5 °F 18% 30.15 in 10.0 mi NW 18.4 mph 24.2 mph N/A   Clear
6:15 PM 73.6 °F - 28.2 °F 19% 30.15 in 10.0 mi NNW 11.5 mph 20.7 mph N/A   Clear
6:35 PM 73.0 °F - 27.7 °F 19% 30.14 in 10.0 mi NNW 12.7 mph 17.3 mph N/A   Clear
6:55 PM 72.7 °F - 27.7 °F 19% 30.14 in 10.0 mi NNW 9.2 mph - N/A   Clear
7:15 PM 72.0 °F - 28.4 °F 20% 30.15 in 10.0 mi NNW 10.4 mph - N/A   Clear
7:35 PM 70.0 °F - 30.2 °F 23% 30.16 in 10.0 mi NNW 5.8 mph - N/A   Clear
7:55 PM 65.7 °F - 30.6 °F 27% 30.16 in 10.0 mi NNW 4.6 mph - N/A   Clear
8:15 PM 63.1 °F - 30.4 °F 29% 30.16 in 10.0 mi North 3.5 mph - N/A   Clear
8:35 PM 61.2 °F - 30.6 °F 32% 30.17 in 10.0 mi Calm Calm - N/A   Clear
8:55 PM 59.4 °F - 30.9 °F 34% 30.18 in 10.0 mi Calm Calm - N/A   Clear
9:15 PM 53.6 °F - 34.2 °F 48% 30.18 in 10.0 mi Calm Calm - N/A   Clear
9:35 PM 56.3 °F - 34.2 °F 43% 30.19 in 10.0 mi Calm Calm - N/A   Clear
9:55 PM 54.3 °F - 33.8 °F 46% 30.20 in 10.0 mi NW 4.6 mph - N/A   Clear
10:15 PM 52.7 °F - 34.2 °F 49% 30.20 in 10.0 mi Calm Calm - N/A   Clear
10:35 PM 51.3 °F - 33.8 °F 51% 30.20 in 10.0 mi WNW 3.5 mph - N/A   Clear
10:55 PM 50.4 °F - 33.8 °F 53% 30.21 in 10.0 mi Calm Calm - N/A   Clear
11:15 PM 50.5 °F - 32.9 °F 51% 30.21 in 10.0 mi Calm Calm - N/A   Clear
11:35 PM 48.0 °F - 34.0 °F 58% 30.21 in 10.0 mi WNW 3.5 mph - N/A   Clear
11:55 PM 48.0 °F - 32.5 °F 55% 30.21 in 10.0 mi Calm Calm - N/A   Clear